x

Magnolia Weather Station

5:15am - Sun 4th Dec 2016 All times are CST. -6 hours from GMT.

  • Wind
    17mph, 24mph gusts
  • Air Temp 77°f
  • Sea Pressure 1011.2mb
  • Magnolia
  • Magnolia

More Historic Weather Station data

Upgrade to MSW Pro to gain access to the past 30 days of data for over 8000 Wavebouys and Weather Stations around the globe.

Join Pro

Comparision Forecast

View Surf forecast
   
Sun 12/04 5:15am 17 24 mph 1011.2mb 77f
4:55am 17
mph
1011.2mb 77f
4:35am 15 21 mph 1010.8mb 77f
4:15am 14 22 mph 1010.5mb 77f
3:55am 16 22 mph 1010.8mb 77f
3:15am 15
mph
1010.8mb 77f
2:55am 16 22 mph 1010.8mb 77f
2:35am 15 22 mph 1011.2mb 77f
2:15am 18
mph
1011.2mb 77f
1:55am 16 23 mph 1010.8mb 77f
1:15am 17
mph
1011.2mb 77f
12:55am 16
mph
1011.2mb 77f
12:35am 15 23 mph 1011.5mb 77f
12:15am 14 21 mph 1011.5mb 77f
Sat 12/03 11:55pm 18
mph
1011.9mb 77f
11:15pm 17 24 mph 1011.9mb 77f
10:55pm 15 25 mph 1011.9mb 77f
10:35pm 18 25 mph 1011.9mb 77f
10:15pm 15 27 mph 1011.9mb 77f
9:55pm 16 28 mph 1011.9mb 77f
9:15pm 14 24 mph 1011.9mb 77f
8:55pm 14 25 mph 1011.9mb 77f
8:15pm 12 20 mph 1012.2mb 77f
7:55pm 10 17 mph 1012.2mb 77f
7:35pm 10
mph
1012.2mb 77f
7:15pm 9 17 mph 1011.9mb 77f
6:55pm 12 18 mph 1011.9mb 77f
6:15pm 13 18 mph 1011.9mb 77f
5:55pm 10 17 mph 1011.5mb 77f
5:35pm 12 18 mph 1011.5mb 77f
5:15pm 13 20 mph 1011.5mb 77f
4:55pm 12 17 mph 1011.5mb 77f
4:15pm 12
mph
1011.5mb -
3:55pm 9 21 mph 1011.5mb 77f
3:15pm 14 23 mph 1011.5mb 77f
2:55pm 13 24 mph 1011.5mb 77f
2:35pm 15 23 mph 1011.5mb 77f
2:15pm 14 28 mph 1011.5mb 77f
1:55pm 17 25 mph 1011.2mb 77f
1:35pm 15 25 mph 1011.5mb 77f
1:15pm 14 22 mph 1011.5mb 77f
12:55pm 15 24 mph 1011.9mb 77f
12:15pm 15 22 mph 1012.9mb 77f
11:55am 14 28 mph 1013.5mb 77f
11:15am 14 22 mph 1014.6mb 77f
10:55am 17 27 mph 1014.6mb 77f
10:15am 13 24 mph 1015.6mb 75f
9:55am 10 18 mph 1015.6mb 75f
9:35am 10 18 mph 1015.6mb 75f
9:15am 12 18 mph 1015.6mb 77f
8:55am 9 21 mph 1015.2mb 75f
8:35am 10 18 mph 1015.2mb 75f
8:15am 12 21 mph 1014.9mb 75f
7:55am 14 22 mph 1014.6mb 75f
7:35am 13 22 mph 1014.2mb 75f
7:15am 13 29 mph 1013.9mb 75f
6:55am 14 22 mph 1013.9mb 75f
6:35am 13 22 mph 1013.9mb 75f
6:15am 12 21 mph 1013.9mb 75f
5:55am 14 25 mph 1014.2mb 75f
5:35am 13 22 mph 1014.2mb 75f
5:15am 14 27 mph 1014.2mb 75f
4:55am 15 27 mph 1014.2mb 75f
4:15am 17 27 mph 1014.2mb 75f
3:35am 21 32 mph 1013.9mb 75f
3:15am 18 31 mph 1014.2mb 75f
2:35am 24 33 mph 1014.6mb 75f
1:55am 23 35 mph 1014.9mb 75f
1:35am 27 33 mph 1014.9mb 75f
12:55am 22 29 mph 1015.6mb 75f
12:35am 21 31 mph 1015.9mb 75f
12:15am 22 30 mph 1016.3mb 75f
Fri 12/02 11:55pm 18 32 mph 1016.3mb 75f
11:15pm 24 33 mph 1016.3mb 75f
10:55pm 21 32 mph 1016.3mb 75f
10:35pm 22 30 mph 1016.3mb 75f
10:15pm 18 33 mph 1016.3mb 75f
9:55pm 20 35 mph 1016.6mb 75f
9:15pm 22 29 mph 1016.6mb 75f
8:55pm 27 32 mph 1016.6mb 73f
8:15pm 32 38 mph 1016.6mb 73f
7:55pm 29 35 mph 1016.6mb 73f
7:35pm 25 37 mph 1016.3mb 73f
7:15pm 24 37 mph 1016.6mb 73f
6:55pm 29 40 mph 1015.9mb 73f
6:35pm 24 38 mph 1015.9mb 73f
6:15pm 31 39 mph 1015.2mb 73f
5:55pm 10 17 mph 1011.5mb 77f
5:35pm 40
mph
1014.6mb 73f
5:15pm 38 45 mph 1014.6mb 75f
4:55pm 36 43 mph 1014.9mb 75f
4:15pm 38
mph
1014.6mb 75f
3:55pm 38
mph
1014.6mb 73f
3:35pm 37
mph
1014.6mb 73f
3:15pm 39
mph
1014.6mb 73f
2:55pm 33 43 mph 1014.6mb 73f
2:15pm 36
mph
1014.6mb 73f
1:55pm 35
mph
1014.9mb 73f
1:35pm 37
mph
1015.2mb 73f
1:15pm 31 37 mph 1015.6mb 75f
12:55pm 31 38 mph 1015.6mb 75f
12:35pm 38 51 mph 1015.9mb 75f
12:15pm 33 41 mph 1015.9mb 75f
11:55am 33 43 mph 1016.6mb 73f
11:35am 33
mph
1017.3mb 73f
11:15am 35
mph
1017.6mb 75f
10:55am 35
mph
1018mb 75f
10:15am 36
mph
1017.6mb 73f
9:55am 36
mph
1018mb 73f
9:35am 29 40 mph 1018mb 75f
9:15am 36
mph
1018mb 73f
8:55am 32
mph
1018.3mb 73f
8:35am 30 36 mph 1018.3mb 73f
8:15am 32
mph
1018mb 73f
7:55am 32
mph
1018mb 73f
7:35am 31
mph
1017.3mb 73f
7:15am 29 36 mph 1017.3mb 73f
6:55am 29
mph
1017.3mb 73f
6:35am 30
mph
1017.3mb 73f
6:15am 27 33 mph 1017.3mb 73f
5:55am 24 31 mph 1016.9mb 73f
5:35am 28
mph
1016.9mb 73f
5:15am 17 29 mph 1016.9mb 73f
4:55am 14 28 mph 1016.9mb 75f
4:35am 21 27 mph 1016.6mb 73f
4:15am 15 28 mph 1016.6mb 73f
3:55am 18 28 mph 1016.6mb 73f
3:35am 15 27 mph 1016.9mb 75f
3:15am 21 28 mph 1016.6mb 73f
2:55am 25
mph
1016.6mb 73f
2:35am 22 29 mph 1016.6mb 73f
2:15am 24
mph
1016.9mb 73f
1:55am 18 28 mph 1016.9mb 73f
1:35am 18
mph
1017.3mb 73f
1:15am 21
mph
1017.3mb 73f
12:55am 23
mph
1017.3mb 73f
12:35am 24
mph
1016.9mb 73f
12:15am 23 30 mph 1016.9mb 72f
Thu 12/01 11:55pm 29
mph
1016.9mb 72f
11:35pm 25
mph
1017.3mb 72f
11:15pm 23
mph
1017.3mb 72f
10:55pm 24
mph
1017.3mb 72f
10:35pm 23 30 mph 1017.3mb 72f
10:15pm 24
mph
1017.3mb 72f
9:55pm 23 30 mph 1017.3mb 72f
9:35pm 20 32 mph 1017.3mb 72f
9:15pm 22
mph
1017.6mb 72f
8:55pm 14 23 mph 1017.3mb 73f
8:35pm 12 23 mph 1017.3mb 72f
8:15pm 16 27 mph 1017.3mb 72f
7:55pm 18 28 mph 1017.3mb 72f
7:35pm 15 23 mph 1017.3mb 72f
7:15pm 9 25 mph 1017.3mb 72f
6:55pm 17 24 mph 1017.3mb 73f
6:15pm 13 23 mph 1016.9mb 72f
5:55pm 14 20 mph 1016.9mb 72f
5:35pm 20 25 mph 1016.3mb 72f
5:15pm 15 23 mph 1016.3mb 72f
4:55pm 9 21 mph 1016.3mb 72f
4:35pm 12 18 mph 1016.6mb 72f
4:15pm 9 18 mph 1016.6mb 72f
3:55pm 12 27 mph 1016.3mb 72f
3:35pm 12 27 mph 1016.6mb 70f
3:15pm 14 25 mph 1016.3mb 72f
2:55pm 18 27 mph 1016.3mb 70f
1:55pm 13 25 mph 1016.9mb 70f
1:35pm 17 48 mph 1016.9mb 72f
1:15pm 17 41 mph 1016.9mb 70f
12:55pm 14 25 mph 1017.3mb 70f
12:35pm 22
mph
1017.6mb 70f
12:15pm 20 27 mph 1018mb 70f
11:55am 15 29 mph 1018.3mb 70f
11:35am 21 28 mph 1018.6mb 68f
11:15am 17 28 mph 1019mb 70f
10:55am 24
mph
1019mb 68f
10:35am 20 31 mph 1019mb 68f
10:15am 23 29 mph 1019.3mb 68f
9:55am 24
mph
1019.3mb 70f
9:35am 14 31 mph 1019mb 70f
9:15am 24 31 mph 1019mb 68f
8:55am 29
mph
1018.6mb 68f
8:35am 17 33 mph 1018.3mb 68f
8:15am 21 30 mph 1018.3mb 68f
7:55am 28
mph
1018mb 68f
7:35am 24 32 mph 1017.6mb 68f
7:15am 21 32 mph 1017.6mb 68f
6:55am 27
mph
1017.3mb 68f
6:15am 24 32 mph 1016.9mb 68f
5:55am 21 31 mph 1016.9mb 68f
5:35am 18 30 mph 1016.6mb 70f
5:15am 23 32 mph 1016.6mb 68f
4:55am 21 30 mph 1016.3mb 70f
4:35am 23 31 mph 1016.3mb 70f
4:15am 10 28 mph 1016.3mb 70f
3:55am 20 27 mph 1016.3mb 70f
3:35am 20 28 mph 1016.3mb 70f
3:15am 13 27 mph 1016.3mb 70f
2:55am 9 29 mph 1015.9mb 70f
2:15am 14 27 mph 1015.9mb 70f
1:55am 16 27 mph 1015.9mb 70f
1:35am 9 24 mph 1015.9mb 72f
1:15am 17 24 mph 1015.9mb 72f
12:55am 16 24 mph 1015.9mb 72f
12:15am 7 27 mph 1015.9mb 72f
Wed 11/30 11:55pm 10 24 mph 1015.9mb 72f
11:15pm 15 24 mph 1015.9mb 72f
10:55pm 16 24 mph 1015.9mb 72f
10:35pm 8 25 mph 1015.9mb 72f
10:15pm 16
mph
1016.3mb 73f
9:55pm 5 12 mph 1016.3mb 73f
9:35pm 5 18 mph 1015.9mb 73f
9:15pm 5 16 mph 1015.9mb 73f
8:55pm 5 15 mph 1015.6mb 73f
8:35pm 5 21 mph 1015.6mb 73f
8:15pm 5
mph
1015.2mb 73f
7:55pm 5 13 mph 1015.2mb 73f
7:35pm 5 12 mph 1014.9mb 73f
7:15pm 3
mph
1014.9mb 73f
6:55pm 5 12 mph 1014.6mb 73f
6:15pm 7 13 mph 1013.9mb 73f
5:55pm 5 14 mph 1013.9mb 73f
5:15pm 6
mph
1013.2mb 73f
4:55pm 6 16 mph 1012.9mb 73f
4:35pm 6 13 mph 1012.9mb 73f
4:15pm 7 14 mph 1012.5mb 73f
3:55pm 7 14 mph 1012.5mb 73f
3:15pm 6 15 mph 1012.2mb 73f
2:55pm 6
mph
1011.9mb 73f
2:35pm 8 18 mph 1011.5mb 73f
2:15pm 6 15 mph 1011.5mb 73f
1:55pm 7 15 mph 1011.2mb 73f
1:15pm 10
mph
1010.8mb 73f
12:55pm 5 12 mph 1011.2mb 73f
12:35pm 5 15 mph 1010.8mb 73f
12:15pm 7
mph
1011.2mb 72f
11:55am 5
mph
1011.2mb 72f